Printer-friendly version

IAU Minor Planet Center

Minor Planet Center

MPEC 2001-Q65: 2001 FA7

The following Minor Planet Electronic Circular may be linked-to from your own Web pages, but must not otherwise be redistributed electronically.


Read MPEC 2001-Q64 Read MPEC 2001-Q66


M.P.E.C. 2001-Q65                                Issued 2001 Aug. 28, 17:29 UT

     The Minor Planet Electronic Circulars contain information on unusual
         minor planets and routine data on comets.  They are published
   on behalf of Commission 20 of the International Astronomical Union by the
          Minor Planet Center, Smithsonian Astrophysical Observatory,
                          Cambridge, MA 02138, U.S.A.

             Prepared using the Tamkin Foundation Computer Network

                              MPC@CFA.HARVARD.EDU
          URL http://cfa-www.harvard.edu/iau/mpc.html  ISSN 1523-6714

                                   2001 FA7

                           Revision to MPEC 2001-F21

Observations:
     K01F07A 1 1977 07 12.63828 21 02 23.25 -56 31 25.7                      260
     K01F07A 1 1977 07 12.69383 21 02 16.57 -56 31 58.1                      260
     K01F07A OC1997 09 30.29775 20 00 27.52 -19 41 28.5          16.4 R      566
     K01F07A OC1997 09 30.30808 20 00 25.70 -19 40 41.2                      566
     K01F07A OC1997 09 30.31780 20 00 24.05 -19 39 56.8                      566

Observer details:
260 Siding Spring-DSS.  Trail located and measured by DANEOPS (R. Stoss).
    1.2-m Schmidt.
566 Haleakala-NEAT/GEODSS.  Observers E. F. Helin, S. Pravdo, K. J. Lawrence,
    D. L. Rabinowitz for the NEAT team.  Images located and measured by
    DANEOPS (R. Stoss).  1.0-m f/2.2 GEODSS telescope + CCD.

Orbital elements:
2001 FA7
Epoch 2001 Oct. 18.0 TT = JDT 2452200.5                 Williams
M 134.63888              (2000.0)            P               Q
n   0.34684344     Peri.   62.30967     +0.56406276     -0.82426962
a   2.0062285      Node   352.74028     +0.55172896     +0.42048091
e   0.5364210      Incl.   22.87425     +0.61435198     +0.37917726
P   2.84           H   16.6           G   0.15           U   2
Residuals in seconds of arc
770712 260  1.5-  0.7-    010320 704  0.3-  0.8-    010401 046  0.2+  0.1+
770712 260  1.5+  0.6+    010320 649  0.4-  0.0     010409 413  0.6-  0.1+
970930 566  0.4-  0.0     010320 649  0.6-  0.5-    010409 413  0.0   0.5-
970930 566  0.3-  0.1+    010320 649  0.7+  0.3-    010409 413  0.2-  0.5-
970930 566  0.6+  0.0     010320 649  0.5+  0.4+    010411 413  0.6-  0.2-
010318 704  0.7-  0.1-    010320 926  0.2+  0.4-    010411 413  0.5-  0.5-
010318 704  1.6+  0.6+    010320 926  0.5+  0.0     010412 413  0.3-  0.5-
010318 704 (2.2+  0.2+)   010320 926  0.2-  0.1-    010412 413  0.5+  1.2-
010319 704  0.2+  0.3-    010321 859  1.5+  2.0+    010413 413  0.2-  0.7-
010319 704  0.8-  1.0-    010321 859  0.2-  1.3+    010413 413  0.1+  0.7-
010319 704  0.0   0.1+    010321 859  1.3-  0.4+    010413 413  0.1+  0.5-
010319 704  0.3+  0.8+    010321 859  1.4-  0.0     010716 568  0.6+  0.3+
010319 704  0.7+  1.5+    010401 046  0.6+  0.1+    010716 568  0.5+  0.4+
010320 704  0.5-  0.5+    010401 046  0.5-  0.1+    010717 568  0.5+  0.4+
010320 704  0.1+  0.3-    010401 046  0.7+  0.0     010717 568  0.0   0.6+
010320 649  0.1-  0.3-    010401 046  0.2+  0.1-

Timothy B. Spahr             (C) Copyright 2001 MPC           M.P.E.C. 2001-Q65

Read MPEC 2001-Q64 Read MPEC 2001-Q66


Our Web policy. Index to the CBAT/MPC/ICQ pages.


Valid HTML 4.01!